Location: San Ignacio Observatory
(34.9291°N, 104.9425°W)
Time: 16:20:28
(UTC-06:00)

Tiangong 2 - Visible Passes

Search period start: 18 August 2018 00:00
Search period end: 28 August 2018 00:00
Orbit: 384 x 395 km, 42.8° (Epoch: 18 August)

Date Brightness Start Highest point End Pass type
(mag) Time Alt. Az. Time Alt. Az. Time Alt. Az.
18 Aug 1.4 04:34:27 65° NE 04:34:27 65° NE 04:37:16 10° ENE visible
19 Aug 4.6 03:39:15 11° ENE 03:39:15 11° ENE 03:39:21 10° ENE visible
19 Aug 2.6 05:11:34 19° WNW 05:13:12 29° NNW 05:16:05 10° NE visible
20 Aug 3.0 04:16:20 30° NNE 04:16:20 30° NNE 04:18:17 10° NE visible
20 Aug 3.3 05:50:09 10° NW 05:52:34 20° N 05:55:02 10° NE visible
21 Aug 3.0 04:53:24 19° NW 04:54:29 22° N 04:57:05 10° NE visible
22 Aug 4.0 03:58:10 17° NNE 03:58:10 17° NNE 03:59:15 10° NE visible
22 Aug 3.4 05:31:30 10° NW 05:33:54 19° N 05:36:19 10° NE visible
23 Aug 3.3 04:35:16 19° NNW 04:35:47 19° N 04:38:12 10° NE visible
24 Aug 4.7 03:40:06 11° NE 03:40:06 11° NE 03:40:13 10° NE visible
24 Aug 3.4 05:12:39 10° NW 05:15:12 21° N 05:17:45 10° ENE visible
25 Aug 3.6 04:17:21 19° N 04:17:21 19° N 04:19:29 10° NE visible
25 Aug 2.4 05:51:26 10° NW 05:54:27 39° NNE 05:57:29 10° E visible
26 Aug 3.0 04:54:42 17° NNW 04:56:24 27° NNE 04:59:13 10° ENE visible
27 Aug 4.2 03:59:52 16° NE 03:59:52 16° NE 04:00:53 10° ENE visible
27 Aug 1.3 05:32:20 10° WNW 05:35:31 71° NNE 05:38:42 10° ESE visible
